Location: Brahman Valley
(40.6513°N, 111.8855°W)
Time: 20:45:56
(UTC+00:00)

Vanguard 2 - Pass Details

Date: 21 May 2021
Orbit: 552 x 2937 km, 32.9° (Epoch: 14 June)

Event Time Altitude Azimuth Distance (km) Brightness Sun altitude
Rises 16:26:24 0° 273° (W) 5,046 11.3 47.2°
Reaches altitude 10° 16:29:51 10° 263° (W) 4,374 11.1 47.9°
Maximum altitude 16:40:24 31° 208° (SSW) 3,696 11.3 49.8°
Drops below altitude 10° 16:54:12 10° 155° (SSE) 5,714 12.5 52.3°
Sets 16:59:37 0° 146° (SE) 6,780 12.8 53.2°
